EW8275 Weather Reports


time (UTC)temp
C
wind
direction
speed
KPH
gust
KPH
rain 1hr
cm
rain 24hr
cm
rain mn
cm
humidity
%
barometer
mb
20260507085534 14 360 4.8 12.9 0.00 0.00 0.00 64 1015.3
20260507085040 14 338 3.2 9.7 0.00 0.00 0.00 66 1015.3
20260507084555 13 67 3.2 9.7 0.00 0.00 0.00 70 1015.3
20260507084024 12 25 3.2 8.0 0.00 0.00 0.00 70 1015.3
20260507083541 12 166 3.2 8.0 0.00 0.00 0.00 71 1015.3
20260507083045 12 305 3.2 11.3 0.00 0.00 0.00 70 1015.3
20260507082549 12 42 4.8 11.3 0.00 0.00 0.00 72 1015.4
20260507082036 12 34 1.6 11.3 0.00 0.00 0.00 73 1015.4
20260507081621 11 21 4.8 11.3 0.00 0.00 0.00 74 1015.4
20260507081038 11 342 3.2 9.7 0.00 0.00 0.00 74 1015.4
20260507080531 11 22 4.8 11.3 0.00 0.00 0.00 74 1015.3
20260507080057 11 22 4.8 11.3 0.00 0.00 0.00 74 1015.3
20260507075536 11 36 6.4 16.1 0.00 0.00 0.00 75 1015.3
20260507075040 11 329 6.4 16.1 0.00 0.00 0.00 76 1015.2
20260507074535 11 329 4.8 9.7 0.00 0.00 0.00 76 1015.3
20260507074054 11 43 4.8 11.3 0.00 0.00 0.00 78 1015.3
20260507073530 10 12 3.2 11.3 0.00 0.00 0.00 79 1015.3
20260507073039 10 31 6.4 11.3 0.00 0.00 0.00 79 1015.2
20260507072531 10 322 6.4 11.3 0.00 0.00 0.00 81 1015.2
20260507072053 10 9 3.2 11.3 0.00 0.00 0.00 81 1015.2
20260507071543 10 360 4.8 11.3 0.00 0.00 0.00 82 1015.2
20260507071031 10 5 4.8 9.7 0.00 0.00 0.00 83 1015.1
20260507070604 10 36 1.6 9.7 0.00 0.00 0.00 82 1015.1
20260507070056 9 42 4.8 14.5 0.00 0.00 0.00 83 1015.2
20260507065552 9 21 4.8 14.5 0.00 0.00 0.00 83 1015.1
20260507065032 9 36 4.8 9.7 0.00 0.00 0.00 85 1015.1
20260507064613 9 348 4.8 9.7 0.00 0.00 0.00 86 1015.0
20260507064048 8 337 6.4 9.7 0.00 0.00 0.00 88 1015.0
20260507063552 8 14 4.8 9.7 0.00 0.00 0.00 89 1015.0
20260507063038 8 336 1.6 6.4 0.00 0.00 0.00 90 1015.1
20260507062540 8 344 3.2 6.4 0.00 0.00 0.00 90 1015.0
20260507062030 8 284 0.0 6.4 0.00 0.00 0.00 91 1015.0
20260507061539 7 317 1.6 6.4 0.00 0.00 0.00 91 1015.0
20260507061051 7 355 3.2 6.4 0.00 0.00 0.00 92 1014.9
20260507060542 7 347 1.6 4.8 0.00 0.00 0.00 92 1014.9
20260507060037 7 344 1.6 4.8 0.00 0.00 0.00 92 1014.9
20260507055545 7 319 1.6 3.2 0.00 0.00 0.00 92 1014.8
20260507055050 7 315 0.0 3.2 0.00 0.00 0.00 93 1014.8
20260507054550 7 351 0.0 4.8 0.00 0.00 0.00 93 1014.8
20260507054039 6 332 1.6 3.2 0.00 0.00 0.00 93 1014.7
20260507053544 6 342 0.0 3.2 0.00 0.00 0.00 93 1014.7
20260507053052 6 342 0.0 3.2 0.00 0.00 0.00 93 1014.7
20260507052549 6 343 0.0 3.2 0.00 0.00 0.00 93 1014.6
20260507052024 6 342 1.6 3.2 0.00 0.00 0.00 93 1014.6
20260507051555 6 342 0.0 1.6 0.00 0.00 0.00 93 1014.5
20260507051046 6 342 0.0 1.6 0.00 0.00 0.00 93 1014.5
20260507050602 6 342 0.0 0.0 0.00 0.00 0.00 93 1014.5
20260507045533 6 342 0.0 1.6 0.00 0.00 0.00 93 1014.3
20260507045034 6 343 0.0 1.6 0.00 0.00 0.00 93 1014.2
20260507044601 6 342 0.0 1.6 0.00 0.00 0.00 93 1014.2
20260507044030 6 342 0.0 3.2 0.00 0.00 0.00 93 1014.2
20260507043533 6 343 0.0 0.0 0.00 0.00 0.00 93 1014.1
20260507043031 6 343 0.0 1.6 0.00 0.00 0.00 93 1014.1
20260507042550 6 342 0.0 3.2 0.00 0.00 0.00 93 1014.1
20260507042029 6 343 0.0 3.2 0.00 0.00 0.00 93 1014.0
20260507041533 6 343 0.0 1.6 0.00 0.00 0.00 93 1014.0
20260507041038 6 343 0.0 3.2 0.00 0.00 0.00 93 1014.0
20260507040541 6 336 0.0 3.2 0.00 0.00 0.00 93 1013.9
20260507040039 5 304 0.0 3.2 0.00 0.00 0.00 93 1013.9
20260507035539 5 333 0.0 0.0 0.00 0.00 0.00 93 1013.8
20260507035032 5 333 0.0 1.6 0.00 0.00 0.00 93 1013.9
20260507034535 5 333 0.0 1.6 0.00 0.00 0.00 93 1013.8
20260507034033 5 333 0.0 0.0 0.00 0.00 0.00 93 1013.8
20260507033548 5 333 0.0 1.6 0.00 0.00 0.00 93 1013.8
20260507033044 5 333 0.0 1.6 0.00 0.00 0.00 93 1013.7
20260507032531 5 333 0.0 0.0 0.00 0.00 0.00 92 1013.7
20260507032030 5 333 0.0 0.0 0.00 0.00 0.00 92 1013.7
20260507031605 5 333 0.0 0.0 0.00 0.00 0.00 92 1013.7
20260507031056 5 333 0.0 1.6 0.00 0.00 0.00 92 1013.7
20260507030601 6 333 0.0 3.2 0.00 0.00 0.00 92 1013.7
20260507030034 6 347 0.0 3.2 0.00 0.00 0.00 92 1013.7
20260507025541 6 332 0.0 1.6 0.00 0.00 0.00 92 1013.6
20260507025046 6 332 0.0 1.6 0.00 0.00 0.00 92 1013.6
20260507024554 6 332 0.0 1.6 0.00 0.00 0.00 92 1013.6
20260507024029 6 338 0.0 3.2 0.00 0.00 0.00 92 1013.5
20260507023603 6 317 0.0 3.2 0.00 0.00 0.00 92 1013.5
20260507023044 6 355 0.0 0.0 0.00 0.00 0.00 92 1013.5
20260507022551 6 355 0.0 3.2 0.00 0.00 0.00 92 1013.4
20260507022045 6 355 0.0 3.2 0.00 0.00 0.00 92 1013.4
20260507021557 6 355 0.0 1.6 0.00 0.00 0.00 92 1013.4
20260507021032 6 355 0.0 0.0 0.00 0.00 0.00 91 1013.4
20260507020548 6 355 0.0 0.0 0.00 0.00 0.00 91 1013.3
20260507020025 6 355 0.0 3.2 0.00 0.00 0.00 91 1013.3
20260507015548 6 355 0.0 3.2 0.00 0.00 0.00 91 1013.3
20260507015028 6 355 0.0 1.6 0.00 0.00 0.00 91 1013.2
20260507014551 6 355 0.0 1.6 0.00 0.00 0.00 91 1013.2
20260507014058 6 355 0.0 3.2 0.00 0.00 0.00 90 1013.2
20260507013532 6 336 0.0 1.6 0.00 0.00 0.00 91 1013.2
20260507013040 6 319 0.0 4.8 0.00 0.00 0.00 90 1013.2
20260507012544 6 5 1.6 4.8 0.00 0.00 0.00 90 1013.2
20260507012031 6 355 1.6 3.2 0.00 0.00 0.00 90 1013.1
20260507011551 6 355 0.0 3.2 0.00 0.00 0.00 90 1013.1
20260507011109 6 331 0.0 3.2 0.00 0.00 0.00 90 1013.1
20260507010550 7 329 1.6 3.2 0.00 0.00 0.00 90 1013.1
20260507010111 7 338 1.6 3.2 0.00 0.00 0.00 89 1013.1
20260507005550 7 355 1.6 3.2 0.00 0.00 0.00 89 1013.1
20260507005025 7 320 1.6 4.8 0.00 0.00 0.00 89 1013.1
20260507004543 7 320 1.6 4.8 0.00 0.00 0.00 89 1013.1
20260507004021 7 360 1.6 4.8 0.00 0.00 0.00 89 1013.0
20260507003544 7 350 1.6 4.8 0.00 0.00 0.00 88 1013.0
20260507003037 7 355 3.2 4.8 0.00 0.00 0.00 88 1013.0
20260507002543 7 332 1.6 4.8 0.00 0.00 0.00 88 1012.9
20260507002037 7 5 1.6 3.2 0.00 0.00 0.00 88 1012.9
20260507001604 7 24 0.0 4.8 0.00 0.00 0.00 87 1012.9
20260507001040 7 360 1.6 4.8 0.00 0.00 0.00 87 1012.8
20260507000544 7 5 1.6 8.0 0.00 0.00 0.00 87 1012.9
20260507000042 7 335 3.2 8.0 0.00 0.00 0.00 86 1012.8
20260506235538 7 5 1.6 6.4 0.00 0.00 0.00 86 1012.8
20260506235107 8 49 3.2 8.0 0.00 0.00 0.00 86 1012.8
20260506234601 8 355 3.2 8.0 0.00 0.00 0.00 85 1012.8
20260506234056 8 5 3.2 6.4 0.00 0.00 0.00 85 1012.8
20260506233551 8 5 3.2 6.4 0.00 0.00 0.00 84 1012.7
20260506233047 8 5 1.6 6.4 0.00 0.00 0.00 84 1012.7
20260506232537 8 5 3.2 6.4 0.00 0.00 0.00 83 1012.7
20260506232052 8 9 3.2 8.0 0.00 0.00 0.00 83 1012.6
20260506231540 8 23 4.8 8.0 0.00 0.00 0.00 82 1012.7
20260506231040 8 12 1.6 9.7 0.00 0.00 0.00 82 1012.7
20260506230544 9 9 4.8 9.7 0.00 0.00 0.00 81 1012.7
20260506230030 9 44 3.2 11.3 0.00 0.00 0.00 81 1012.6
20260506225539 9 39 4.8 11.3 0.00 0.00 0.00 80 1012.6
20260506225029 9 19 6.4 11.3 0.00 0.00 0.00 79 1012.6
20260506224611 10 333 4.8 9.7 0.00 0.00 0.00 79 1012.6
20260506224044 10 33 3.2 11.3 0.00 0.00 0.00 78 1012.5
20260506223540 10 344 3.2 11.3 0.00 0.00 0.00 78 1012.5
20260506223111 10 5 3.2 11.3 0.00 0.00 0.00 77 1012.5
20260506222538 10 331 4.8 11.3 0.00 0.00 0.00 76 1012.5
20260506222049 10 15 6.4 11.3 0.00 0.00 0.00 75 1012.5
20260506221537 10 74 4.8 14.5 0.00 0.00 0.00 75 1012.4
20260506221031 10 37 4.8 14.5 0.00 0.00 0.00 74 1012.4
20260506220538 10 360 6.4 12.9 0.00 0.00 0.00 74 1012.4
20260506220025 10 337 4.8 12.9 0.00 0.00 0.00 74 1012.3
20260506215529 10 5 4.8 12.9 0.00 0.00 0.00 74 1012.3
20260506215035 11 11 6.4 12.9 0.00 0.00 0.00 74 1012.3
20260506214552 11 338 4.8 11.3 0.00 0.00 0.00 74 1012.2
20260506214034 11 30 6.4 11.3 0.00 0.00 0.00 73 1012.1
20260506213539 11 22 4.8 11.3 0.00 0.00 0.00 73 1012.1
20260506213027 11 22 6.4 11.3 0.00 0.00 0.00 73 1012.2
20260506212540 11 360 6.4 11.3 0.00 0.00 0.00 73 1012.1
20260506212033 11 355 4.8 11.3 0.00 0.00 0.00 72 1012.1
20260506211543 11 339 3.2 9.7 0.00 0.00 0.00 72 1012.0
20260506211036 11 65 4.8 9.7 0.00 0.00 0.00 72 1011.9
20260506210549 11 327 4.8 9.7 0.00 0.00 0.00 72 1011.9
20260506210054 11 355 4.8 9.7 0.00 0.00 0.00 71 1011.9
20260506205548 11 18 4.8 9.7 0.00 0.00 0.00 71 1011.9
20260506205057 11 360 4.8 11.3 0.00 0.00 0.00 71 1011.8
20260506204623 11 26 3.2 11.3 0.00 0.00 0.00 71 1011.8
20260506204103 11 300 3.2 11.3 0.00 0.00 0.00 71 1011.8
20260506203533 11 329 4.8 12.9 0.00 0.00 0.00 71 1011.7
20260506203059 11 105 6.4 12.9 0.00 0.00 0.00 72 1011.7
20260506202546 11 318 3.2 8.0 0.00 0.00 0.00 72 1011.7
20260506202031 11 16 3.2 8.0 0.00 0.00 0.00 73 1011.7
20260506201551 11 332 3.2 8.0 0.00 0.00 0.00 73 1011.7
20260506201030 11 5 3.2 8.0 0.00 0.00 0.00 72 1011.6
20260506200532 11 5 1.6 8.0 0.00 0.00 0.00 72 1011.6
20260506200049 11 32 4.8 9.7 0.00 0.00 0.00 72 1011.6
20260506195559 11 52 4.8 9.7 0.00 0.00 0.00 72 1011.5
20260506195043 11 26 3.2 9.7 0.00 0.00 0.00 72 1011.5
20260506194557 12 5 3.2 11.3 0.00 0.00 0.00 72 1011.4
20260506194101 12 11 4.8 14.5 0.00 0.00 0.00 71 1011.4
20260506193602 12 308 6.4 16.1 0.00 0.00 0.00 71 1011.4
20260506193028 12 13 6.4 16.1 0.00 0.00 0.00 70 1011.3
20260506192547 12 11 6.4 16.1 0.00 0.00 0.00 70 1011.2
20260506192043 12 16 4.8 9.7 0.00 0.00 0.00 70 1011.1
20260506191554 12 334 3.2 8.0 0.00 0.00 0.00 69 1011.1
20260506191045 12 336 3.2 8.0 0.00 0.00 0.00 69 1010.9
20260506190558 12 20 3.2 8.0 0.00 0.00 0.00 68 1010.9
20260506190041 12 49 1.6 6.4 0.00 0.00 0.00 67 1010.9
20260506185536 12 11 1.6 9.7 0.00 0.00 0.00 66 1010.8
20260506185047 12 19 4.8 11.3 0.00 0.00 0.00 66 1010.7
20260506184538 12 14 6.4 11.3 0.00 0.00 0.00 64 1010.7
20260506184041 12 343 3.2 11.3 0.00 0.00 0.00 64 1010.6
20260506183535 12 31 3.2 16.1 0.00 0.00 0.00 64 1010.6
20260506183027 12 55 6.4 16.1 0.00 0.00 0.00 63 1010.5
20260506182545 12 9 8.0 16.1 0.00 0.00 0.00 62 1010.4
20260506182029 12 9 4.8 9.7 0.00 0.00 0.00 61 1010.4
20260506181538 13 25 6.4 9.7 0.00 0.00 0.00 61 1010.3
20260506181040 13 24 4.8 11.3 0.00 0.00 0.00 60 1010.2
20260506180534 13 5 4.8 16.1 0.00 0.00 0.00 60 1010.2
20260506180051 13 5 4.8 16.1 0.00 0.00 0.00 60 1010.2
20260506175547 13 313 4.8 9.7 0.00 0.00 0.00 60 1010.1
20260506175043 13 24 4.8 9.7 0.00 0.00 0.00 62 1010.0
20260506174554 13 26 3.2 6.4 0.00 0.00 0.00 61 1009.9
20260506174031 13 5 1.6 6.4 0.00 0.00 0.00 60 1009.8
20260506173601 13 21 1.6 6.4 0.00 0.00 0.00 60 1009.8
20260506173042 13 5 1.6 6.4 0.00 0.00 0.00 59 1009.7
20260506172540 13 34 1.6 4.8 0.00 0.00 0.00 59 1009.7
20260506172029 13 15 1.6 6.4 0.00 0.00 0.00 59 1009.6
20260506171540 13 32 1.6 6.4 0.00 0.00 0.00 57 1009.5
20260506171037 13 5 3.2 8.0 0.00 0.00 0.00 57 1009.5
20260506170559 13 90 3.2 8.0 0.00 0.00 0.00 58 1009.6
20260506170044 13 31 3.2 8.0 0.00 0.00 0.00 56 1009.6
20260506165540 13 9 3.2 8.0 0.00 0.00 0.00 55 1009.5
20260506165106 13 39 3.2 8.0 0.00 0.00 0.00 57 1009.5
20260506164531 13 87 3.2 11.3 0.00 0.00 0.00 57 1009.5
20260506164027 13 70 4.8 11.3 0.00 0.00 0.00 57 1009.5
20260506163538 13 32 3.2 9.7 0.00 0.00 0.00 56 1009.5
20260506163027 13 53 4.8 9.7 0.00 0.00 0.00 55 1009.5
20260506162553 13 55 3.2 8.0 0.00 0.00 0.00 56 1009.5
20260506162039 13 99 1.6 11.3 0.00 0.00 0.00 55 1009.5
20260506161558 13 62 3.2 9.7 0.00 0.00 0.00 57 1009.5
20260506161045 13 28 4.8 9.7 0.00 0.00 0.00 54 1009.5
20260506160621 13 45 4.8 9.7 0.00 0.00 0.00 56 1009.5
20260506160106 13 350 3.2 12.9 0.00 0.00 0.00 55 1009.5
20260506155535 13 54 4.8 12.9 0.00 0.00 0.00 57 1009.4
20260506155049 13 97 4.8 11.3 0.00 0.00 0.00 57 1009.5
20260506154605 13 32 4.8 11.3 0.00 0.00 0.00 57 1009.5
20260506154101 13 108 3.2 9.7 0.00 0.00 0.00 57 1009.5
20260506153547 13 72 3.2 11.3 0.00 0.00 0.00 56 1009.4
20260506153028 13 94 3.2 8.0 0.00 0.00 0.00 56 1009.4
20260506152549 13 87 4.8 9.7 0.00 0.00 0.00 55 1009.4
20260506152036 13 36 4.8 8.0 0.00 0.00 0.00 55 1009.4
20260506151546 14 110 3.2 6.4 0.00 0.00 0.00 55 1009.4
20260506151035 14 43 1.6 9.7 0.00 0.00 0.00 56 1009.4
20260506150539 14 65 3.2 9.7 0.00 0.00 0.00 58 1009.4
20260506150050 14 96 3.2 9.7 0.00 0.00 0.00 56 1009.4
20260506145553 14 89 3.2 9.7 0.00 0.00 0.00 56 1009.3
20260506145040 14 103 3.2 6.4 0.00 0.00 0.00 57 1009.3
20260506144537 13 81 3.2 11.3 0.00 0.00 0.00 55 1009.3
20260506144100 13 71 3.2 11.3 0.00 0.00 0.00 57 1009.3
20260506143546 13 128 4.8 11.3 0.00 0.00 0.00 57 1009.3
20260506143030 14 49 4.8 12.9 0.00 0.00 0.00 56 1009.2
20260506142555 14 124 4.8 12.9 0.00 0.00 0.00 56 1009.2
20260506142054 14 74 1.6 11.3 0.00 0.00 0.00 55 1009.2
20260506141537 14 49 6.4 11.3 0.00 0.00 0.00 50 1009.3
20260506141030 14 5 8.0 11.3 0.00 0.00 0.00 51 1009.2
20260506140554 14 5 6.4 11.3 0.00 0.00 0.00 50 1009.3
20260506140029 14 261 4.8 14.5 0.00 0.00 0.00 50 1009.3
20260506135537 14 63 4.8 16.1 0.00 0.00 0.00 51 1009.3
20260506135048 15 273 8.0 16.1 0.00 0.00 0.00 51 1009.3
20260506134535 15 42 4.8 16.1 0.00 0.00 0.00 50 1009.2
20260506134039 15 58 6.4 16.1 0.00 0.00 0.00 50 1009.2
20260506133541 15 46 6.4 16.1 0.00 0.00 0.00 51 1009.2
20260506133103 15 355 4.8 16.1 0.00 0.00 0.00 53 1009.1
20260506132602 15 78 6.4 12.9 0.00 0.00 0.00 53 1009.1
20260506132037 15 38 6.4 14.5 0.00 0.00 0.00 52 1009.1
20260506131555 15 36 1.6 14.5 0.00 0.00 0.00 53 1009.0
20260506131049 15 35 4.8 14.5 0.00 0.00 0.00 53 1009.0
20260506130530 15 316 6.4 19.3 0.00 0.00 0.00 55 1009.0
20260506130030 15 15 9.7 19.3 0.00 0.00 0.00 56 1009.1
20260506125552 15 70 4.8 17.7 0.00 0.00 0.00 56 1009.0
20260506125053 14 14 8.0 20.9 0.00 0.00 0.00 56 1008.9
20260506124552 14 32 9.7 20.9 0.00 0.00 0.00 55 1008.9
20260506124041 14 340 8.0 20.9 0.00 0.00 0.00 55 1008.8
20260506123601 15 288 6.4 20.9 0.00 0.00 0.00 55 1008.8
20260506123053 15 5 8.0 17.7 0.00 0.00 0.00 54 1008.8
20260506122544 15 15 8.0 17.7 0.00 0.00 0.00 53 1008.8
20260506122046 16 360 6.4 19.3 0.00 0.00 0.00 52 1008.7
20260506121545 16 43 8.0 19.3 0.00 0.00 0.00 52 1008.6
20260506121026 15 44 6.4 17.7 0.00 0.00 0.00 54 1008.7
20260506120602 15 20 6.4 17.7 0.00 0.00 0.00 56 1008.8
20260506120050 14 28 11.3 17.7 0.00 0.00 0.00 56 1008.7
20260506115535 15 355 4.8 17.7 0.00 0.00 0.00 57 1008.6
20260506115042 15 70 8.0 19.3 0.00 0.00 0.00 56 1008.7
20260506114534 15 5 9.7 27.4 0.00 0.00 0.00 55 1008.7
20260506114102 16 46 12.9 27.4 0.00 0.00 0.00 52 1008.7
20260506113544 16 278 6.4 19.3 0.00 0.00 0.00 52 1008.7
20260506113032 16 58 8.0 16.1 0.00 0.00 0.00 53 1008.8
20260506112547 16 136 4.8 12.9 0.00 0.00 0.00 54 1008.7
20260506112026 16 316 6.4 16.1 0.00 0.00 0.00 54 1008.7
20260506111557 17 32 8.0 20.9 0.00 0.00 0.00 49 1008.7
20260506111044 17 12 8.0 22.5 0.00 0.00 0.00 48 1008.7
20260506110546 17 277 8.0 22.5 0.00 0.00 0.00 48 1008.7
20260506110048 16 53 8.0 22.5 0.00 0.00 0.00 51 1008.7
20260506105556 16 44 8.0 25.7 0.00 0.00 0.00 49 1008.7
20260506105059 16 306 8.0 24.1 0.00 0.00 0.00 56 1008.6
20260506104557 15 65 11.3 24.1 0.00 0.00 0.00 58 1008.7
20260506104109 15 34 6.4 17.7 0.00 0.00 0.00 63 1008.6
20260506103545 15 324 4.8 14.5 0.00 0.00 0.00 68 1008.6
20260506103035 14 306 9.7 14.5 0.00 0.00 0.00 66 1008.6
20260506102540 14 9 4.8 12.9 0.00 0.00 0.00 68 1008.7
20260506102036 14 25 6.4 17.7 0.00 0.00 0.00 67 1008.6
20260506101536 14 10 4.8 17.7 0.00 0.00 0.00 67 1008.5
20260506101030 14 304 4.8 17.7 0.00 0.00 0.00 67 1008.5
20260506100534 13 9 11.3 17.7 0.00 0.00 0.00 67 1008.5
20260506100056 13 5 8.0 16.1 0.00 0.00 0.00 68 1008.5
20260506095604 13 247 6.4 22.5 0.00 0.00 0.00 68 1008.5
20260506095038 14 26 11.3 22.5 0.00 0.00 0.00 64 1008.5
20260506094607 15 42 12.9 25.7 0.00 0.00 0.00 62 1008.5
20260506094034 16 37 9.7 19.3 0.00 0.00 0.00 61 1008.5
20260506093608 16 75 9.7 19.3 0.00 0.00 0.00 59 1008.4
20260506093030 15 5 9.7 20.9 0.00 0.00 0.00 59 1008.3
20260506092545 16 14 8.0 22.5 0.00 0.00 0.00 60 1008.4
20260506092028 15 53 6.4 22.5 0.00 0.00 0.00 63 1008.3
20260506091537 15 26 8.0 14.5 0.00 0.00 0.00 62 1008.3
20260506091056 15 53 4.8 16.1 0.00 0.00 0.00 63 1008.2
20260506090540 15 323 8.0 19.3 0.00 0.00 0.00 64 1008.2
20260506090109 15 46 8.0 19.3 0.00 0.00 0.00 62 1008.2